This demonstration page uses our WeatherBlox Daily Observations layout. Learn more.

Left ArrowRight Arrow

39.01783, -85.05884

Hourly Observations for June 19, 2021

Temp ( °F °C ) Dew Point ( °F °C ) Humidity (%) Winds ( mph kmh ) Pressure ( in mb ) Visibility ( mi km ) Precip ( " mm )
12:21 am 00:21 Mostly Clear with Light Rain 68 20 65 18.3 90 90 SSE 12 19 29.92 1013 10 16 0.03 0.76
12:28 am 00:28 Partly Cloudy with Light Thunderstorms 68 20 65 18.3 90 90 SSE 10 17 29.94 1014 10 16 0.03 0.76
12:49 am 00:49 Cloudy with Nearby Thunderstorms 68 20 64 18 88 88 SSW 17 28 29.96 1014 10 16 0.04 1.02
12:52 am 00:52 Cloudy with Nearby Thunderstorms 67 19.4 64 17.8 91 91 SSW 17 28 29.94 1014 9 14 0.04 1.02
12:59 am 00:59 Mostly Cloudy with Nearby Thunderstorms 67 19.4 64 17.8 91 91 SW 14 22 29.95 1014 7 11 0.01 0.25
1:10 am 01:10 Mostly Cloudy with Light Rain 67 19.4 64 17.8 91 91 SSW 13 20 29.95 1014 9 14 0.02 0.51
1:32 am 01:32 Cloudy with Light Thunderstorms 68 20 65 18.3 90 90 SSW 15 24 29.95 1014 10 16 0.03 0.76
1:47 am 01:47 Cloudy with Nearby Thunderstorms 68 20 64 18 88 88 SSW 13 20 29.94 1014 6 10 0.05 1.27
1:52 am 01:52 Cloudy with Rain 68 20 65 18.3 90 90 SSW 14 22 29.93 1014 7 11 0.06 1.52
2:52 am 02:52 Mostly Cloudy with Rain 67 19.4 64 17.8 91 91 S 17 28 29.89 1012 6 10 0.10 2.54
3:52 am 03:52 Mostly Cloudy with Light Rain 67 19.4 64 17.8 91 91 N 13 20 29.94 1014 10 16 0.08 2.03
4:41 am 04:41 Cloudy with Thunderstorms 67 19.4 65 18.3 93 93 W 6 9 29.98 1015 4 6 0.09 2.29
4:52 am 04:52 Cloudy with Thunderstorms 67 19.4 65 18.3 93 93 WSW 3 6 29.96 1015 3 5 0.12 3.05
5:11 am 05:11 Cloudy with Nearby Thunderstorms 67 19.4 64 17.8 91 91 S 9 15 29.97 1015 5 8 0.05 1.27
5:20 am 05:20 Cloudy with Thunderstorms 67 19.4 64 17.8 91 91 S 9 15 29.97 1015 5 8 0.06 1.52
5:32 am 05:32 Mostly Cloudy with Rain 67 19.4 64 17.8 91 91 SSE 8 13 29.95 1014 6 10 0.08 2.03
5:52 am 05:52 Mostly Cloudy with Light Rain 67 19.4 64 17.8 91 91 S 6 9 29.92 1013 10 16 0.10 2.54
6:32 am 06:32 Cloudy with Light Thunderstorms 67 19.4 64 17.8 91 91 SSW 7 11 29.95 1014 9 14 0.01 0.25
6:44 am 06:44 Cloudy with Nearby Thunderstorms 67 19.4 64 17.8 91 91 SW 5 7 29.98 1015 3 4 0.03 0.76
6:52 am 06:52 Cloudy with Nearby Thunderstorms 67 19.4 64 17.8 91 91 W 6 9 29.96 1015 2 3 0.08 2.03
7:03 am 07:03 Cloudy with Heavy Thunderstorms 67 19.4 64 17.8 91 91 SW 6 9 29.98 1015 2 3 0.08 2.03
7:52 am 07:52 Cloudy with Heavy Thunderstorms 66 18.9 63 17.2 90 90 NE 7 11 29.98 1015 2 3 0.93 23.62
7:57 am 07:57 Cloudy with Nearby Thunderstorms 66 18.9 63 17.2 90 90 NE 5 7 29.99 1016 2 3 0.07 1.78
8:04 am 08:04 Cloudy with Thunderstorms 65 18.3 63 17.2 93 93 NNE 8 13 30.01 1016 3 5 0.17 4.32
8:32 am 08:32 Cloudy with Nearby Thunderstorms 66 18.9 64 17.8 93 93 N 10 17 30.03 1017 2 3 0.43 10.92
8:39 am 08:39 Cloudy with Heavy Thunderstorms 66 18.9 64 17.8 93 93 NNW 8 13 30.05 1018 1 2 0.58 14.73
8:52 am 08:52 Cloudy with Heavy Thunderstorms 65 18.3 63 17.2 93 93 WNW 6 9 30.03 1017 1 2 0.92 23.37
9:08 am 09:08 Cloudy with Nearby Thunderstorms 65 18.3 62 16.7 90 90 WSW 5 7 30.03 1017 1 2 0.18 4.57
9:18 am 09:18 Cloudy with Heavy Thunderstorms 65 18.3 63 17.2 93 93 WSW 3 6 30.02 1017 2 3 0.22 5.59
9:31 am 09:31 Cloudy with Heavy Rain 65 18.3 63 17.2 93 93 SSE 15 24 29.96 1015 3 4 0.27 6.86
9:40 am 09:40 Cloudy with Rain 65 18.3 63 17.2 93 93 S 16 26 29.96 1015 5 8 0.31 7.87
9:52 am 09:52 Cloudy with Light Rain 65 18.3 63 17.2 93 93 VRB 7 11 29.92 1013 3 5 0.35 8.89
10:52 am 10:52 Mostly Cloudy 70 21.1 64 17.8 82 82 S 10 17 29.86 1011 10 16 0.00 0.00
11:52 am 11:52 Cloudy 73 22.8 64 17.8 74 74 S 10 17 29.87 1011 10 16 N/A
12:52 pm 12:52 Cloudy 73 22.8 63 17.2 71 71 SSW 16 26 29.89 1012 10 16 N/A
1:52 pm 13:52 Cloudy with Light Rain 71 21.7 65 18.3 81 81 S 13 20 29.84 1011 10 16 0.00 0.00
2:52 pm 14:52 Cloudy 74 23.3 66 18.9 76 76 WNW 8 13 29.85 1011 10 16 0.00 0.00
3:52 pm 15:52 Mostly Cloudy 77 25 67 19.4 71 71 WSW 10 17 29.84 1011 10 16 N/A
4:52 pm 16:52 Mostly Cloudy 80 26.7 68 20 67 67 SW 14 22 29.83 1010 10 16 N/A
5:52 pm 17:52 Mostly Cloudy 81 27.2 68 20 65 65 SW 15 24 29.81 1009 10 16 N/A
6:52 pm 18:52 Mostly Cloudy 80 26.7 68 20 67 67 SW 10 17 29.81 1010 10 16 N/A
7:52 pm 19:52 Cloudy 80 26.7 69 20.6 69 69 SW 6 9 29.81 1010 10 16 N/A
8:52 pm 20:52 Cloudy 78 25.6 69 20.6 74 74 WSW 3 6 29.81 1010 10 16 N/A
9:52 pm 21:52 Cloudy 76 24.4 69 20.6 79 79 SSW 5 7 29.81 1009 10 16 N/A
10:52 pm 22:52 Mostly Cloudy 75 23.9 69 20.6 82 82 S 3 6 29.82 1010 9 14 N/A
11:52 pm 23:52 Mostly Cloudy 74 23.3 68 20 82 82 S 5 7 29.82 1010 10 16 N/A

Powered by AerisWeather